EN

Hourly Weather Almerek

Today, 23 January, Saturday

Time Temperature Precipitation Wind Pressure Humidity
00:00 -7°C° 0.1 mm 2 mps 714 mmHg 92%
01:00 -7°C° 0.1 mm 2 mps 714 mmHg 90%
02:00 -8°C° 0.1 mm 2 mps 714 mmHg 88%
03:00 -8°C° 0.2 mm 2 mps 714 mmHg 90%
04:00 -9°C° 0.2 mm 2 mps 714 mmHg 92%
05:00 -10°C° 0.2 mm 2 mps 714 mmHg 94%
06:00 -10°C° 0 mm 2 mps 715 mmHg 91%
07:00 -9°C° 0 mm 1 mps 715 mmHg 88%
08:00 -9°C° 0 mm 1 mps 715 mmHg 86%
09:00 -8°C° 0 mm 1 mps 715 mmHg 83%
10:00 -7°C° 0 mm 1 mps 714 mmHg 81%
11:00 -6°C° 0 mm 1 mps 714 mmHg 79%
12:00 -6°C° 0 mm 1 mps 714 mmHg 80%
13:00 -6°C° 0 mm 1 mps 713 mmHg 81%
14:00 -7°C° 0 mm 2 mps 713 mmHg 82%
15:00 -6°C° 0 mm 1 mps 713 mmHg 85%
16:00 -7°C° 0 mm 1 mps 713 mmHg 88%
17:00 -8°C° 0 mm 1 mps 713 mmHg 90%
18:00 -8°C° 0 mm 1 mps 713 mmHg 88%
19:00 -8°C° 0 mm 0 mps 714 mmHg 85%
20:00 -8°C° 0 mm 0 mps 714 mmHg 82%
21:00 -8°C° 0 mm 1 mps 714 mmHg 80%
22:00 -8°C° 0 mm 2 mps 714 mmHg 77%
23:00 -8°C° 0 mm 2 mps 714 mmHg 75%

Tomorrow, 24 January, Sunday

Time Temperature Precipitation Wind Pressure Humidity
00:00 -7°C° 0.1 mm 2 mps 714 mmHg 77%
01:00 -7°C° 0.1 mm 2 mps 715 mmHg 78%
02:00 -4°C° 0.1 mm 1 mps 715 mmHg 79%
03:00 -6°C° 0.1 mm 2 mps 716 mmHg 77%
04:00 -6°C° 0.1 mm 2 mps 716 mmHg 75%
05:00 -6°C° 0.1 mm 2 mps 717 mmHg 74%
06:00 -6°C° 0 mm 2 mps 717 mmHg 75%
07:00 -6°C° 0 mm 2 mps 718 mmHg 77%
08:00 -6°C° 0 mm 1 mps 718 mmHg 79%
09:00 -3°C° 0 mm 1 mps 718 mmHg 78%
10:00 -2°C° 0 mm 1 mps 718 mmHg 77%
11:00 -1°C° 0 mm 1 mps 717 mmHg 77%
12:00 -1°C° 0 mm 1 mps 717 mmHg 77%
13:00 -1°C° 0 mm 1 mps 716 mmHg 78%
14:00 -1°C° 0 mm 1 mps 716 mmHg 79%
15:00 -2°C° 0 mm 1 mps 716 mmHg 80%
16:00 -4°C° 0 mm 1 mps 716 mmHg 81%
17:00 -7°C° 0 mm 2 mps 716 mmHg 81%
18:00 -6°C° 0 mm 1 mps 716 mmHg 79%
19:00 -7°C° 0 mm 1 mps 716 mmHg 77%
20:00 -7°C° 0 mm 1 mps 716 mmHg 74%
21:00 -8°C° 0 mm 2 mps 716 mmHg 75%
22:00 -8°C° 0 mm 2 mps 715 mmHg 76%
23:00 -8°C° 0 mm 2 mps 715 mmHg 77%

Day after tomorrow, 25 January, Monday

Time Temperature Precipitation Wind Pressure Humidity
00:00 -8°C° 0 mm 2 mps 715 mmHg 79%
01:00 -8°C° 0 mm 2 mps 715 mmHg 81%
02:00 -8°C° 0 mm 2 mps 715 mmHg 82%
03:00 -7°C° 0 mm 1 mps 714 mmHg 83%
04:00 -7°C° 0 mm 1 mps 714 mmHg 83%
05:00 -7°C° 0 mm 1 mps 714 mmHg 84%
06:00 -7°C° 0 mm 1 mps 714 mmHg 84%
07:00 -7°C° 0 mm 1 mps 714 mmHg 85%
08:00 -7°C° 0 mm 1 mps 714 mmHg 85%
09:00 -6°C° 0 mm 1 mps 713 mmHg 86%
10:00 -7°C° 0 mm 2 mps 713 mmHg 86%
11:00 -6°C° 0 mm 2 mps 713 mmHg 87%
12:00 -5°C° 0 mm 2 mps 712 mmHg 88%
13:00 -5°C° 0 mm 2 mps 712 mmHg 89%
14:00 -5°C° 0 mm 2 mps 711 mmHg 91%
15:00 -6°C° 0 mm 2 mps 711 mmHg 90%
16:00 -6°C° 0 mm 1 mps 711 mmHg 90%
17:00 -6°C° 0 mm 1 mps 712 mmHg 90%
18:00 -7°C° 0 mm 1 mps 712 mmHg 87%
19:00 -7°C° 0 mm 1 mps 712 mmHg 85%
20:00 -8°C° 0 mm 1 mps 712 mmHg 82%
21:00 -8°C° 0 mm 1 mps 712 mmHg 81%
22:00 -8°C° 0 mm 1 mps 712 mmHg 79%
23:00 -8°C° 0 mm 1 mps 712 mmHg 78%

26 January, Tuesday

Time Temperature Precipitation Wind Pressure Humidity
00:00 -8°C° 0 mm 1 mps 712 mmHg 77%
01:00 -9°C° 0 mm 1 mps 712 mmHg 76%
02:00 -9°C° 0 mm 1 mps 712 mmHg 75%
03:00 -9°C° 0 mm 1 mps 712 mmHg 75%
04:00 -9°C° 0 mm 1 mps 712 mmHg 75%
05:00 -9°C° 0 mm 0 mps 712 mmHg 75%
06:00 -9°C° 0 mm 0 mps 712 mmHg 75%
07:00 -9°C° 0 mm 1 mps 712 mmHg 74%
08:00 -9°C° 0 mm 1 mps 712 mmHg 74%
09:00 -7°C° 0 mm 1 mps 712 mmHg 75%
10:00 -6°C° 0 mm 1 mps 712 mmHg 77%
11:00 -4°C° 0 mm 1 mps 712 mmHg 78%
12:00 -3°C° 0 mm 1 mps 712 mmHg 80%
13:00 -3°C° 0 mm 1 mps 712 mmHg 82%
14:00 -3°C° 0 mm 1 mps 711 mmHg 84%
15:00 -4°C° 0 mm 1 mps 711 mmHg 85%
16:00 -6°C° 0 mm 1 mps 711 mmHg 86%
17:00 -7°C° 0 mm 1 mps 712 mmHg 87%
18:00 -8°C° 0 mm 1 mps 712 mmHg 85%
19:00 -8°C° 0 mm 1 mps 712 mmHg 82%
20:00 -8°C° 0 mm 1 mps 712 mmHg 80%
21:00 -8°C° 0 mm 1 mps 712 mmHg 79%
22:00 -9°C° 0 mm 1 mps 712 mmHg 78%
23:00 -9°C° 0 mm 1 mps 712 mmHg 76%

27 January, Wednesday

Time Temperature Precipitation Wind Pressure Humidity
00:00 -9°C° 0 mm 1 mps 712 mmHg 76%
01:00 -9°C° 0 mm 1 mps 712 mmHg 75%
02:00 -9°C° 0 mm 1 mps 712 mmHg 74%
03:00 -9°C° 0 mm 1 mps 712 mmHg 74%
04:00 -9°C° 0 mm 1 mps 712 mmHg 73%
05:00 -10°C° 0 mm 1 mps 712 mmHg 73%
06:00 -10°C° 0 mm 1 mps 712 mmHg 73%
07:00 -9°C° 0 mm 1 mps 713 mmHg 73%
08:00 -9°C° 0 mm 1 mps 713 mmHg 73%
09:00 -8°C° 0 mm 1 mps 713 mmHg 75%
10:00 -6°C° 0 mm 1 mps 712 mmHg 76%
11:00 -4°C° 0 mm 1 mps 712 mmHg 77%
12:00 -4°C° 0 mm 1 mps 712 mmHg 79%
13:00 -3°C° 0 mm 1 mps 711 mmHg 80%
14:00 -3°C° 0 mm 1 mps 711 mmHg 82%
15:00 -4°C° 0 mm 1 mps 711 mmHg 83%
16:00 -6°C° 0 mm 1 mps 711 mmHg 84%
17:00 -8°C° 0 mm 0 mps 712 mmHg 85%
18:00 -8°C° 0 mm 0 mps 712 mmHg 82%
19:00 -8°C° 0 mm 0 mps 712 mmHg 80%
20:00 -8°C° 0 mm 0 mps 712 mmHg 78%
21:00 -8°C° 0 mm 1 mps 713 mmHg 77%
22:00 -8°C° 0 mm 1 mps 713 mmHg 76%
23:00 -8°C° 0 mm 1 mps 713 mmHg 75%

28 January, Thursday

Time Temperature Precipitation Wind Pressure Humidity
00:00 -9°C° 0 mm 1 mps 713 mmHg 74%
01:00 -9°C° 0 mm 1 mps 713 mmHg 74%
02:00 -9°C° 0 mm 1 mps 712 mmHg 73%
03:00 -9°C° 0 mm 1 mps 712 mmHg 73%
04:00 -9°C° 0 mm 1 mps 712 mmHg 73%
05:00 -9°C° 0 mm 0 mps 712 mmHg 72%
06:00 -9°C° 0 mm 0 mps 712 mmHg 72%
07:00 -9°C° 0 mm 0 mps 712 mmHg 72%
08:00 -9°C° 0 mm 0 mps 713 mmHg 71%
09:00 -7°C° 0 mm 1 mps 712 mmHg 72%
10:00 -6°C° 0 mm 1 mps 712 mmHg 74%
11:00 -4°C° 0 mm 1 mps 712 mmHg 75%
12:00 -3°C° 0 mm 1 mps 712 mmHg 76%
13:00 -3°C° 0 mm 1 mps 711 mmHg 78%
14:00 -2°C° 0 mm 1 mps 711 mmHg 80%
15:00 -3°C° 0 mm 1 mps 711 mmHg 81%
16:00 -6°C° 0 mm 1 mps 711 mmHg 82%
17:00 -7°C° 0 mm 0 mps 711 mmHg 84%
18:00 -7°C° 0 mm 1 mps 711 mmHg 81%
19:00 -8°C° 0 mm 1 mps 712 mmHg 79%
20:00 -8°C° 0 mm 1 mps 712 mmHg 76%
21:00 -8°C° 0 mm 1 mps 712 mmHg 75%
22:00 -8°C° 0 mm 1 mps 712 mmHg 74%
23:00 -8°C° 0 mm 1 mps 712 mmHg 73%
Show more